[TLELIST] Archives

 

[TLELIST] Current TLEs

July 19th 2025 PDT

HST 1 20580U 90037B 25199.64482148 .00003707 00000-0 13368-3 0 9998 2 20580 28.4666 191.6407 0002234 84.8118 275.2731 15.25584126737494 ISS (ZARYA) 1 25544U 98067A 25200.17124576 .00006153 00000-0 11590-3 0 9996 2 25544 51.6335 148.5331 0002204 94.5231 265.6010 15.49949392520127 CXO 1 25867U 99040B 25201.17133178 .00000577 00000-0 00000+0 0 9999 2 25867 50.2044 128.2122 8375655 309.9049 0.4385 0.37804860 27225 ...Continue Reading

[TLELIST] Current TLEs

July 18th 2025 PDT

HST 1 20580U 90037B 25198.27105692 .00003718 00000-0 13415-3 0 9997 2 20580 28.4667 200.9564 0002209 71.8388 288.2447 15.25574939737545 ISS (ZARYA) 1 25544U 98067A 25199.20410805 .00007024 00000-0 13123-3 0 9992 2 25544 51.6336 153.3248 0002239 91.7860 268.3385 15.49935069519976 CXO 1 25867U 99040B 25201.17133178 .00000577 00000-0 00000+0 0 9999 2 25867 50.2044 128.2122 8375655 309.9049 0.4385 0.37804860 27225 ...Continue Reading

[TLELIST] Current TLEs

July 18th 2025 PDT

HST 1 20580U 90037B 25198.27105692 .00003718 00000-0 13415-3 0 9997 2 20580 28.4667 200.9564 0002209 71.8388 288.2447 15.25574939737545 ISS (ZARYA) 1 25544U 98067A 25199.20410805 .00007024 00000-0 13123-3 0 9992 2 25544 51.6336 153.3248 0002239 91.7860 268.3385 15.49935069519976 CXO 1 25867U 99040B 25201.17133178 .00000577 00000-0 00000+0 0 9999 2 25867 50.2044 128.2122 8375655 309.9049 0.4385 0.37804860 27225 ...Continue Reading

[TLELIST] Current TLEs

July 17th 2025 PDT

HST 1 20580U 90037B 25197.35520936 .00003234 00000-0 11565-3 0 9994 2 20580 28.4669 207.1671 0002188 62.2987 297.7829 15.25567339737141 ISS (ZARYA) 1 25544U 98067A 25198.23696061 .00005914 00000-0 11182-3 0 9993 2 25544 51.6342 158.1162 0002274 87.0874 273.0375 15.49919983519826 CXO 1 25867U 99040B 25201.17092660 .00000577 00000-0 00000+0 0 9999 2 25867 50.2045 128.2122 8375635 309.9047 0.3829 0.37805668 27221 ...Continue Reading

[TLELIST] Current TLEs

July 17th 2025 PDT

HST 1 20580U 90037B 25197.35520936 .00003234 00000-0 11565-3 0 9994 2 20580 28.4669 207.1671 0002188 62.2987 297.7829 15.25567339737141 ISS (ZARYA) 1 25544U 98067A 25198.23696061 .00005914 00000-0 11182-3 0 9993 2 25544 51.6342 158.1162 0002274 87.0874 273.0375 15.49919983519826 CXO 1 25867U 99040B 25201.17092660 .00000577 00000-0 00000+0 0 9999 2 25867 50.2045 128.2122 8375635 309.9047 0.3829 0.37805668 27221 ...Continue Reading

[TLELIST] Current TLEs

July 16th 2025 PDT

HST 1 20580U 90037B 25197.22437354 .00003263 00000-0 11677-3 0 9997 2 20580 28.4669 208.0543 0002181 61.0879 298.9934 15.25566610737386 ISS (ZARYA) 1 25544U 98067A 25197.20549984 .00006354 00000-0 11690-3 0 9993 2 25544 51.6345 163.2275 0002691 16.9970 343.1109 15.50566696519669 CXO 1 25867U 99040B 25198.52758380 .00000642 00000-0 00000-0 0 9995 2 25867 50.1201 128.3795 8378680 309.8247 0.6254 0.37805643 16052 ...Continue Reading

[TLELIST] Current TLEs

July 16th 2025 PDT

HST 1 20580U 90037B 25197.22437354 .00003263 00000-0 11677-3 0 9997 2 20580 28.4669 208.0543 0002181 61.0879 298.9934 15.25566610737386 ISS (ZARYA) 1 25544U 98067A 25197.20549984 .00006354 00000-0 11690-3 0 9993 2 25544 51.6345 163.2275 0002691 16.9970 343.1109 15.50566696519669 CXO 1 25867U 99040B 25198.52758380 .00000642 00000-0 00000-0 0 9995 2 25867 50.1201 128.3795 8378680 309.8247 0.6254 0.37805643 16052 ...Continue Reading

[TLELIST] Current TLEs

July 15th 2025 PDT

HST 1 20580U 90037B 25196.17768479 .00003537 00000-0 12729-3 0 9998 2 20580 28.4670 215.1518 0002172 51.2943 308.7845 15.25560689737226 ISS (ZARYA) 1 25544U 98067A 25196.17429620 .00009301 00000-0 16747-3 0 9995 2 25544 51.6344 168.3411 0002700 13.1182 346.9877 15.50554616519506 CXO 1 25867U 99040B 25198.52758380 .00000642 00000-0 00000-0 0 9995 2 25867 50.1201 128.3795 8378680 309.8247 0.6254 0.37805643 16052 ...Continue Reading

[TLELIST] Current TLEs

July 14th 2025 PDT

HST 1 20580U 90037B 25194.41138708 .00004125 00000-0 14986-3 0 9990 2 20580 28.4671 227.1293 0002111 33.5278 326.5450 15.25549441736690 ISS (ZARYA) 1 25544U 98067A 25195.20753373 .00009183 00000-0 16557-3 0 9990 2 25544 51.6342 173.1351 0002688 9.5212 350.5828 15.50534533519355 CXO 1 25867U 99040B 25195.88330759 .00000732 00000-0 00000+0 0 9996 2 25867 50.0377 128.5416 8379652 309.7681 0.6557 0.37800536 27209 ...Continue Reading

[TLELIST] Current TLEs

July 13th 2025 PDT

HST 1 20580U 90037B 25193.43010431 .00003704 00000-0 13374-3 0 9995 2 20580 28.4672 233.7833 0002049 23.5803 336.4885 15.25541554736540 ISS (ZARYA) 1 25544U 98067A 25194.17630689 .00009469 00000-0 17059-3 0 9994 2 25544 51.6340 178.2487 0002656 5.9347 354.1673 15.50514308519191 CXO 1 25867U 99040B 25195.88330759 .00000732 00000-0 00000+0 0 9996 2 25867 50.0377 128.5416 8379652 309.7681 0.6557 0.37800536 27209 ...Continue Reading
  • This mailing list is a public mailing list - anyone may join or leave, at any time.
  • This mailing list is announce-only.

International Space Station (ISS) / Hubble Space Telescope (HST) / Chandra X-Ray Observatory Orbital Data via EMAIL

Privacy Policy:

Private list